Powerscourt Airfield

Jump to: basic info | weather | comments

Related pages: nearby airports | nearby navaids | notams | map

Basic information (top)

Codes: EIPT
Location: lon 53.178301, lat -6.196495, elev 470 ft / 143 m msl
Status: small_airport

Weather (top)

Current conditions for Casement Air Base 12nm (22km) NW (rec'd 2014/10/24 15:00Z):

EIME 241500Z 23015KT 9999 FEW020 11/07 Q1010

Airport forecast for Dublin Airport 15nm (27km) N (rec'd 2014/10/24 12:25Z):

TAF EIDW 241100Z 2412/2512 25015KT 9999 FEW018 BKN030 
      BECMG 2416/2418 23010KT 
      BECMG 2502/2505 23016G28KT

Latest comments (top)

Reopened: does anybody know about reopening and ppr? [read]

Operations suspended at this airport: Air Accident Investigation Unit Interim ... [read]

re: Powerscourt Airfield: Thank you very much - I've updated the position. [read]

Powerscourt Airfield: Position 53:10.787N 006:12.075W ... [read]

More... (top)

See also NOTAMs and nearby airports and navaids, or visit the Powerscourt Airfield page at the main OurAirports website..